This demonstration page uses our WeatherBlox Daily Observations layout. Learn more.

Left ArrowRight Arrow

34.16533, -84.80231

Hourly Observations for October 16, 2015

Temp ( °F °C ) Dew Point ( °F °C ) Humidity (%) Winds ( mph kmh ) Pressure ( in mb ) Visibility ( mi km ) Precip ( " mm )
12:53 am 00:53 Clear 52 11.1 51 10.6 97 97 Calm 30.12 1020 10 16 0.00 0.00
1:53 am 01:53 Clear 51 10.6 50 10 96 96 Calm 30.11 1020 10 16 0.00 0.00
2:53 am 02:53 Clear 52 11.1 51 10.6 97 97 Calm 30.10 1019 10 16 0.00 0.00
3:53 am 03:53 Clear 51 10.6 51 10.6 100 100 Calm 30.09 1019 10 16 0.00 0.00
4:53 am 04:53 Clear 51 10.6 50 10 96 96 Calm 30.09 1019 10 16 0.00 0.00
5:53 am 05:53 Clear 50 10 50 10 100 100 Calm 30.10 1019 10 16 0.00 0.00
6:53 am 06:53 Clear 51 10.6 50 10 96 96 Calm 30.11 1020 10 16 0.00 0.00
7:53 am 07:53 Sunny 51 10.6 50 10 96 96 Calm 30.11 1020 10 16 0.00 0.00
8:53 am 08:53 Sunny 54 12.2 53 11.7 97 97 Calm 30.13 1020 10 16 0.00 0.00
9:53 am 09:53 Sunny 60 15.6 55 12.8 84 84 Calm 30.15 1021 10 16 0.00 0.00
10:53 am 10:53 Sunny 66 18.9 56 13.3 70 70 VRB 3 6 30.16 1021 10 16 0.00 0.00
11:53 am 11:53 Sunny 71 21.7 51 10.6 49 49 N 15 24 30.16 1022 10 16 0.00 0.00
12:53 pm 12:53 Sunny 72 22.2 48 8.9 43 43 N 14 22 30.17 1022 10 16 0.00 0.00
1:53 pm 13:53 Sunny 73 22.8 48 8.9 41 41 N 16 26 30.16 1021 10 16 0.00 0.00
2:53 pm 14:53 Sunny 74 23.3 44 6.7 34 34 N 7 11 30.14 1021 10 16 0.00 0.00
3:53 pm 15:53 Sunny 74 23.3 38 3.3 27 27 N 9 15 30.13 1020 10 16 0.00 0.00
4:53 pm 16:53 Sunny 73 22.8 40 4.4 30 30 VRB 6 9 30.13 1020 10 16 0.00 0.00
5:53 pm 17:53 Sunny 69 20.6 33 0.6 26 26 VRB 7 11 30.14 1021 10 16 0.00 0.00
6:53 pm 18:53 Sunny 65 18.3 33 0.6 31 31 N 6 9 30.15 1021 10 16 0.00 0.00
7:53 pm 19:53 Clear 62 16.7 32 0 32 32 N 6 9 30.18 1022 10 16 0.00 0.00
8:53 pm 20:53 Clear 59 15 33 0.6 38 38 N 5 7 30.19 1022 10 16 0.00 0.00
9:53 pm 21:53 Clear 50 10 39 3.9 66 66 Calm 30.20 1023 10 16 0.00 0.00
10:53 pm 22:53 Clear 46 7.8 41 5 83 83 Calm 30.22 1024 10 16 0.00 0.00
11:53 pm 23:53 Clear 47 8.3 40 4.4 77 77 Calm 30.24 1024 10 16 0.00 0.00

Powered by AerisWeather